SOYUZ-MS 01

Last updated on Sun Oct 30 2016 17:17:25 GMT+0000 (Greenwich Mean Time)

1 41639U 16044A 16303.58431043 .00005649 00000-0 91678-4 0 9998 2 41639 51.6442 107.7096 0007107 122.0107 353.6756 15.54377897 17824
UTC large
Height (km)
Speed (km/s)
/
Latitude / Longitude
Inclination (degrees)
Orbital Period (minutes)
Azimuth
Elevation
Range (km)
Doppler Factor

Next 0 passes for location: London (51.5072 / 0.1276)

Sorry there are no passes over London.